contact:dominique.lefevre@mio.osupytheas.fr, maurice.libes@osupytheas.fr, didier.mallarino@osupytheas.fr
Project:EMSO http://www.emso-fr.org/EMSO-France
Depth: 2436.0 m
Title:EMSO Ligure Ouest : Data MII capteur MICROCAT
DateTime_Computer,Latitude,Longitude,Temperature,Conductivity,Pressure,DateTime_Instrument
DateTime_Computer,Latitude,Longitude,degC,S m-1,dbar,DateTime_Instrument
2021-12-22T00:02:20Z,42.805,6.029,13.3021,4.60059,2470.03,2021-12-22T02:03:49Z
2021-12-22T00:05:23Z,42.805,6.029,13.3026,4.60061,2470.007,2021-12-22T02:06:52Z
2021-12-22T00:08:26Z,42.805,6.029,13.3026,4.60033,2469.984,2021-12-22T02:09:55Z
2021-12-22T00:11:29Z,42.805,6.029,13.3028,4.60049,2470.007,2021-12-22T02:12:58Z
2021-12-22T00:14:32Z,42.805,6.029,13.3031,4.60036,2470.017,2021-12-22T02:16:01Z
2021-12-22T00:17:35Z,42.805,6.029,13.3036,4.60044,2469.97,2021-12-22T02:19:04Z
2021-12-22T00:20:39Z,42.805,6.029,13.3013,4.60044,2470.017,2021-12-22T02:22:08Z
2021-12-22T00:23:42Z,42.805,6.029,13.3011,4.60064,2470.007,2021-12-22T02:25:11Z
2021-12-22T00:26:45Z,42.805,6.029,13.3054,4.60062,2470.03,2021-12-22T02:28:14Z
2021-12-22T00:29:48Z,42.805,6.029,13.3017,4.60085,2470.03,2021-12-22T02:31:17Z
2021-12-22T00:32:51Z,42.805,6.029,13.3012,4.60099,2469.993,2021-12-22T02:34:20Z
2021-12-22T00:35:54Z,42.805,6.029,13.3022,4.60044,2469.947,2021-12-22T02:37:23Z
2021-12-22T00:38:57Z,42.805,6.029,13.3041,4.60040,2469.97,2021-12-22T02:40:26Z
2021-12-22T00:42:00Z,42.805,6.029,13.3037,4.60054,2470.007,2021-12-22T02:43:29Z
2021-12-22T00:45:04Z,42.805,6.029,13.3026,4.60066,2469.993,2021-12-22T02:46:33Z
2021-12-22T00:48:07Z,42.805,6.029,13.3026,4.60069,2469.993,2021-12-22T02:49:36Z
2021-12-22T00:51:10Z,42.805,6.029,13.3033,4.60067,2469.984,2021-12-22T02:52:39Z
2021-12-22T00:54:13Z,42.805,6.029,13.3067,4.60056,2469.993,2021-12-22T02:55:42Z
2021-12-22T00:57:16Z,42.805,6.029,13.3037,4.60074,2469.993,2021-12-22T02:58:45Z
2021-12-22T01:00:19Z,42.805,6.029,13.3021,4.60043,2470.007,2021-12-22T03:01:48Z
2021-12-22T01:03:22Z,42.805,6.029,13.3026,4.60046,2469.97,2021-12-22T03:04:51Z
2021-12-22T01:06:25Z,42.805,6.029,13.3029,4.60058,2469.984,2021-12-22T03:07:54Z
2021-12-22T01:09:29Z,42.805,6.029,13.3019,4.60072,2469.993,2021-12-22T03:10:58Z
2021-12-22T01:12:32Z,42.805,6.029,13.3021,4.60074,2469.97,2021-12-22T03:14:01Z
2021-12-22T01:15:35Z,42.805,6.029,13.3029,4.60059,2469.97,2021-12-22T03:17:04Z
2021-12-22T01:18:38Z,42.805,6.029,13.3054,4.60109,2469.947,2021-12-22T03:20:07Z
2021-12-22T01:21:41Z,42.805,6.029,13.3056,4.60102,2469.923,2021-12-22T03:23:10Z
2021-12-22T01:24:44Z,42.805,6.029,13.3057,4.60074,2469.993,2021-12-22T03:26:13Z
2021-12-22T01:27:47Z,42.805,6.029,13.3061,4.60161,2469.97,2021-12-22T03:29:16Z
2021-12-22T01:30:50Z,42.805,6.029,13.3055,4.60092,2469.947,2021-12-22T03:32:19Z
2021-12-22T01:33:53Z,42.805,6.029,13.3034,4.60117,2469.984,2021-12-22T03:35:22Z
2021-12-22T01:36:57Z,42.805,6.029,13.3047,4.60128,2469.984,2021-12-22T03:38:26Z
2021-12-22T01:40:00Z,42.805,6.029,13.3063,4.60115,2469.97,2021-12-22T03:41:29Z
2021-12-22T01:43:03Z,42.805,6.029,13.3091,4.60097,2469.923,2021-12-22T03:44:32Z
2021-12-22T01:46:06Z,42.805,6.029,13.3068,4.60102,2469.947,2021-12-22T03:47:35Z
2021-12-22T01:49:09Z,42.805,6.029,13.3096,4.60165,2469.97,2021-12-22T03:50:38Z
2021-12-22T01:52:12Z,42.805,6.029,13.3037,4.60128,2469.947,2021-12-22T03:53:41Z
2021-12-22T01:55:15Z,42.805,6.029,13.3057,4.60153,2469.979,2021-12-22T03:56:44Z
2021-12-22T01:58:18Z,42.805,6.029,13.3072,4.60130,2469.96,2021-12-22T03:59:48Z
2021-12-22T02:01:22Z,42.805,6.029,13.3089,4.60129,2469.947,2021-12-22T04:02:51Z
2021-12-22T02:04:25Z,42.805,6.029,13.3082,4.60132,2469.984,2021-12-22T04:05:54Z
2021-12-22T02:07:28Z,42.805,6.029,13.3045,4.60134,2469.984,2021-12-22T04:08:57Z
2021-12-22T02:10:31Z,42.805,6.029,13.3067,4.60108,2469.97,2021-12-22T04:12:00Z
2021-12-22T02:13:34Z,42.805,6.029,13.3048,4.60074,2469.96,2021-12-22T04:15:03Z
2021-12-22T02:16:37Z,42.805,6.029,13.3053,4.60113,2469.97,2021-12-22T04:18:06Z
2021-12-22T02:19:40Z,42.805,6.029,13.3047,4.60072,2469.947,2021-12-22T04:21:09Z
2021-12-22T02:22:43Z,42.805,6.029,13.3026,4.60078,2469.947,2021-12-22T04:24:12Z
2021-12-22T02:25:47Z,42.805,6.029,13.3069,4.60116,2469.96,2021-12-22T04:27:16Z
2021-12-22T02:28:50Z,42.805,6.029,13.3026,4.60110,2469.947,2021-12-22T04:30:19Z
2021-12-22T02:31:53Z,42.805,6.029,13.3046,4.60105,2469.96,2021-12-22T04:33:22Z
2021-12-22T02:34:56Z,42.805,6.029,13.3025,4.60079,2469.947,2021-12-22T04:36:25Z
2021-12-22T02:37:59Z,42.805,6.029,13.3048,4.60084,2469.97,2021-12-22T04:39:28Z
2021-12-22T02:41:02Z,42.805,6.029,13.3028,4.60092,2469.96,2021-12-22T04:42:31Z
2021-12-22T02:44:05Z,42.805,6.029,13.3010,4.60066,2469.97,2021-12-22T04:45:34Z
2021-12-22T02:47:08Z,42.805,6.029,13.3017,4.60104,2469.96,2021-12-22T04:48:37Z
2021-12-22T02:50:12Z,42.805,6.029,13.3019,4.60104,2469.984,2021-12-22T04:51:41Z
2021-12-22T02:53:15Z,42.805,6.029,13.3017,4.60063,2469.914,2021-12-22T04:54:44Z
2021-12-22T02:56:18Z,42.805,6.029,13.3008,4.60062,2469.96,2021-12-22T04:57:47Z
2021-12-22T02:59:21Z,42.805,6.029,13.3006,4.60076,2469.984,2021-12-22T05:00:50Z
2021-12-22T03:02:24Z,42.805,6.029,13.3016,4.60087,2469.97,2021-12-22T05:03:53Z
2021-12-22T03:05:27Z,42.805,6.029,13.3031,4.60089,2469.96,2021-12-22T05:06:56Z
2021-12-22T03:08:30Z,42.805,6.029,13.3036,4.60090,2469.937,2021-12-22T05:09:59Z
2021-12-22T03:11:33Z,42.805,6.029,13.3039,4.60068,2470.007,2021-12-22T05:13:02Z
2021-12-22T03:14:37Z,42.805,6.029,13.3043,4.60094,2469.97,2021-12-22T05:16:06Z
2021-12-22T03:17:40Z,42.805,6.029,13.3040,4.60100,2469.947,2021-12-22T05:19:09Z
2021-12-22T03:20:43Z,42.805,6.029,13.3015,4.60086,2469.923,2021-12-22T05:22:12Z
2021-12-22T03:23:46Z,42.805,6.029,13.3025,4.60094,2470.007,2021-12-22T05:25:15Z
2021-12-22T03:26:49Z,42.805,6.029,13.3048,4.60142,2469.956,2021-12-22T05:28:18Z
2021-12-22T03:29:52Z,42.805,6.029,13.3054,4.60079,2469.984,2021-12-22T05:31:21Z
2021-12-22T03:32:55Z,42.805,6.029,13.3028,4.60102,2469.984,2021-12-22T05:34:24Z
2021-12-22T03:35:58Z,42.805,6.029,13.3062,4.60094,2469.96,2021-12-22T05:37:27Z
2021-12-22T03:39:02Z,42.805,6.029,13.3064,4.60094,2469.947,2021-12-22T05:40:31Z
2021-12-22T03:42:05Z,42.805,6.029,13.3058,4.60095,2469.96,2021-12-22T05:43:34Z
2021-12-22T03:45:08Z,42.805,6.029,13.3048,4.60074,2469.96,2021-12-22T05:46:37Z
2021-12-22T03:48:11Z,42.805,6.029,13.3027,4.60092,2470.017,2021-12-22T05:49:40Z
2021-12-22T03:51:14Z,42.805,6.029,13.3038,4.60108,2469.984,2021-12-22T05:52:43Z
2021-12-22T03:54:17Z,42.805,6.029,13.3051,4.60099,2469.993,2021-12-22T05:55:46Z
2021-12-22T03:57:20Z,42.805,6.029,13.3061,4.60076,2469.947,2021-12-22T05:58:49Z
2021-12-22T04:00:23Z,42.805,6.029,13.3044,4.60079,2470.03,2021-12-22T06:01:52Z
2021-12-22T04:03:27Z,42.805,6.029,13.3048,4.60056,2470.007,2021-12-22T06:04:56Z
2021-12-22T04:06:30Z,42.805,6.029,13.3047,4.60074,2469.947,2021-12-22T06:07:59Z
2021-12-22T04:09:33Z,42.805,6.029,13.3031,4.60084,2469.984,2021-12-22T06:11:02Z
2021-12-22T04:12:36Z,42.805,6.029,13.3021,4.60072,2470.007,2021-12-22T06:14:05Z
2021-12-22T04:15:39Z,42.805,6.029,13.3032,4.60079,2469.97,2021-12-22T06:17:08Z
2021-12-22T04:18:42Z,42.805,6.029,13.3038,4.60069,2469.97,2021-12-22T06:20:11Z
2021-12-22T04:21:45Z,42.805,6.029,13.3047,4.60089,2469.97,2021-12-22T06:23:14Z
2021-12-22T04:24:48Z,42.805,6.029,13.3025,4.60102,2470.007,2021-12-22T06:26:17Z
2021-12-22T04:27:51Z,42.805,6.029,13.3040,4.60086,2470.007,2021-12-22T06:29:21Z
2021-12-22T04:30:55Z,42.805,6.029,13.3041,4.60098,2470.007,2021-12-22T06:32:24Z
2021-12-22T04:33:58Z,42.805,6.029,13.3040,4.60072,2469.993,2021-12-22T06:35:27Z
2021-12-22T04:37:01Z,42.805,6.029,13.3028,4.60087,2470.007,2021-12-22T06:38:30Z
2021-12-22T04:40:04Z,42.805,6.029,13.3035,4.60085,2470.017,2021-12-22T06:41:33Z
2021-12-22T04:43:07Z,42.805,6.029,13.3038,4.60068,2470.03,2021-12-22T06:44:36Z
2021-12-22T04:46:10Z,42.805,6.029,13.3044,4.60062,2470.017,2021-12-22T06:47:39Z
2021-12-22T04:49:13Z,42.805,6.029,13.3044,4.60074,2470.017,2021-12-22T06:50:42Z
2021-12-22T04:52:16Z,42.805,6.029,13.3037,4.60083,2470.053,2021-12-22T06:53:46Z
2021-12-22T04:55:20Z,42.805,6.029,13.3039,4.60085,2470.017,2021-12-22T06:56:49Z
2021-12-22T04:58:23Z,42.805,6.029,13.3026,4.60089,2470.03,2021-12-22T06:59:52Z
2021-12-22T05:01:26Z,42.805,6.029,13.3031,4.60069,2469.993,2021-12-22T07:02:55Z
2021-12-22T05:04:29Z,42.805,6.029,13.3028,4.60079,2470.04,2021-12-22T07:05:58Z
2021-12-22T05:07:32Z,42.805,6.029,13.3037,4.60077,2470.03,2021-12-22T07:09:01Z
2021-12-22T05:10:35Z,42.805,6.029,13.3043,4.60094,2470.03,2021-12-22T07:12:04Z
2021-12-22T05:13:38Z,42.805,6.029,13.3031,4.60119,2470.063,2021-12-22T07:15:07Z
2021-12-22T05:16:41Z,42.805,6.029,13.3028,4.60097,2470.03,2021-12-22T07:18:10Z
2021-12-22T05:19:45Z,42.805,6.029,13.3014,4.60096,2470.04,2021-12-22T07:21:14Z
2021-12-22T05:22:48Z,42.805,6.029,13.3013,4.60068,2470.007,2021-12-22T07:24:17Z
2021-12-22T05:25:51Z,42.805,6.029,13.3021,4.60098,2470.017,2021-12-22T07:27:20Z
2021-12-22T05:28:54Z,42.805,6.029,13.3026,4.60084,2470.053,2021-12-22T07:30:23Z
2021-12-22T05:31:57Z,42.805,6.029,13.3029,4.60087,2470.04,2021-12-22T07:33:26Z
2021-12-22T05:35:00Z,42.805,6.029,13.3034,4.60090,2470.053,2021-12-22T07:36:29Z
2021-12-22T05:38:03Z,42.805,6.029,13.3030,4.60084,2470.063,2021-12-22T07:39:32Z
2021-12-22T05:41:06Z,42.805,6.029,13.3025,4.60084,2470.04,2021-12-22T07:42:36Z
2021-12-22T05:44:10Z,42.805,6.029,13.3024,4.60096,2470.063,2021-12-22T07:45:39Z
2021-12-22T05:47:13Z,42.805,6.029,13.3036,4.60068,2470.063,2021-12-22T07:48:42Z
2021-12-22T05:50:16Z,42.805,6.029,13.3032,4.60085,2470.063,2021-12-22T07:51:45Z
2021-12-22T05:53:19Z,42.805,6.029,13.3026,4.60075,2470.077,2021-12-22T07:54:48Z
2021-12-22T05:56:22Z,42.805,6.029,13.3033,4.60092,2470.063,2021-12-22T07:57:51Z
2021-12-22T05:59:25Z,42.805,6.029,13.3023,4.60061,2470.087,2021-12-22T08:00:54Z
2021-12-22T06:02:28Z,42.805,6.029,13.3014,4.60076,2470.053,2021-12-22T08:03:57Z
2021-12-22T06:05:31Z,42.805,6.029,13.3041,4.60080,2470.077,2021-12-22T08:07:00Z
2021-12-22T06:08:35Z,42.805,6.029,13.3031,4.60096,2470.087,2021-12-22T08:10:04Z
2021-12-22T06:11:38Z,42.805,6.029,13.3033,4.60099,2470.077,2021-12-22T08:13:07Z
2021-12-22T06:14:41Z,42.805,6.029,13.3041,4.60062,2470.1,2021-12-22T08:16:10Z
2021-12-22T06:17:44Z,42.805,6.029,13.3046,4.60079,2470.1,2021-12-22T08:19:13Z
2021-12-22T06:20:47Z,42.805,6.029,13.3031,4.60102,2470.124,2021-12-22T08:22:16Z
2021-12-22T06:23:50Z,42.805,6.029,13.3023,4.60099,2470.087,2021-12-22T08:25:19Z
2021-12-22T06:26:53Z,42.805,6.029,13.3051,4.60102,2470.124,2021-12-22T08:28:22Z
2021-12-22T06:29:56Z,42.805,6.029,13.3040,4.60081,2470.124,2021-12-22T08:31:25Z
2021-12-22T06:33:00Z,42.805,6.029,13.3029,4.60081,2470.1,2021-12-22T08:34:29Z
2021-12-22T06:36:03Z,42.805,6.029,13.3038,4.60079,2470.11,2021-12-22T08:37:32Z
2021-12-22T06:39:06Z,42.805,6.029,13.3021,4.60086,2470.124,2021-12-22T08:40:35Z
2021-12-22T06:42:09Z,42.805,6.029,13.3008,4.60086,2470.156,2021-12-22T08:43:38Z
2021-12-22T06:45:12Z,42.805,6.029,13.3029,4.60058,2470.124,2021-12-22T08:46:41Z
2021-12-22T06:48:15Z,42.805,6.029,13.3036,4.60088,2470.124,2021-12-22T08:49:44Z
2021-12-22T06:51:18Z,42.805,6.029,13.3032,4.60074,2470.133,2021-12-22T08:52:47Z
2021-12-22T06:54:21Z,42.805,6.029,13.3036,4.60079,2470.171,2021-12-22T08:55:50Z
2021-12-22T06:57:25Z,42.805,6.029,13.3025,4.60087,2470.133,2021-12-22T08:58:54Z
2021-12-22T07:00:28Z,42.805,6.029,13.3032,4.60087,2470.171,2021-12-22T09:01:57Z
2021-12-22T07:03:31Z,42.805,6.029,13.3038,4.60089,2470.171,2021-12-22T09:05:00Z
2021-12-22T07:06:34Z,42.805,6.029,13.3026,4.60094,2470.171,2021-12-22T09:08:03Z
2021-12-22T07:09:37Z,42.805,6.029,13.3029,4.60082,2470.171,2021-12-22T09:11:06Z
2021-12-22T07:12:40Z,42.805,6.029,13.3035,4.60097,2470.133,2021-12-22T09:14:09Z
2021-12-22T07:15:43Z,42.805,6.029,13.3030,4.60076,2470.18,2021-12-22T09:17:12Z
2021-12-22T07:18:46Z,42.805,6.029,13.3026,4.60079,2470.194,2021-12-22T09:20:15Z
2021-12-22T07:21:50Z,42.805,6.029,13.3036,4.60089,2470.18,2021-12-22T09:23:19Z
2021-12-22T07:24:53Z,42.805,6.029,13.3023,4.60078,2470.194,2021-12-22T09:26:22Z
2021-12-22T07:27:56Z,42.805,6.029,13.3013,4.60090,2470.171,2021-12-22T09:29:25Z
2021-12-22T07:30:59Z,42.805,6.029,13.3033,4.60088,2470.194,2021-12-22T09:32:28Z
2021-12-22T07:34:02Z,42.805,6.029,13.3032,4.60092,2470.203,2021-12-22T09:35:31Z
2021-12-22T07:37:05Z,42.805,6.029,13.3038,4.60088,2470.217,2021-12-22T09:38:34Z
2021-12-22T07:40:08Z,42.805,6.029,13.3030,4.60087,2470.227,2021-12-22T09:41:37Z
2021-12-22T07:43:11Z,42.805,6.029,13.3015,4.60052,2470.194,2021-12-22T09:44:40Z
2021-12-22T07:46:15Z,42.805,6.029,13.3029,4.60090,2470.217,2021-12-22T09:47:44Z
2021-12-22T07:49:18Z,42.805,6.029,13.3019,4.60084,2470.203,2021-12-22T09:50:47Z
2021-12-22T07:52:21Z,42.805,6.029,13.3000,4.60077,2470.217,2021-12-22T09:53:50Z
2021-12-22T07:55:24Z,42.805,6.029,13.3029,4.60084,2470.203,2021-12-22T09:56:53Z
2021-12-22T07:58:27Z,42.805,6.029,13.3023,4.60089,2470.217,2021-12-22T09:59:56Z
2021-12-22T08:01:30Z,42.805,6.029,13.3036,4.60077,2470.217,2021-12-22T10:02:59Z
2021-12-22T08:04:33Z,42.805,6.029,13.3031,4.60079,2470.194,2021-12-22T10:06:02Z
2021-12-22T08:07:36Z,42.805,6.029,13.3033,4.60097,2470.24,2021-12-22T10:09:05Z
2021-12-22T08:10:40Z,42.805,6.029,13.3035,4.60069,2470.227,2021-12-22T10:12:09Z
2021-12-22T08:13:43Z,42.805,6.029,13.3006,4.60068,2470.203,2021-12-22T10:15:12Z
2021-12-22T08:16:46Z,42.805,6.029,13.3021,4.60097,2470.203,2021-12-22T10:18:15Z
2021-12-22T08:19:49Z,42.805,6.029,13.3027,4.60094,2470.25,2021-12-22T10:21:18Z
2021-12-22T08:22:52Z,42.805,6.029,13.3032,4.60103,2470.227,2021-12-22T10:24:21Z
2021-12-22T08:25:55Z,42.805,6.029,13.3018,4.60081,2470.217,2021-12-22T10:27:24Z
2021-12-22T08:28:58Z,42.805,6.029,13.3018,4.60051,2470.227,2021-12-22T10:30:27Z
2021-12-22T08:32:01Z,42.805,6.029,13.3015,4.60078,2470.227,2021-12-22T10:33:30Z
2021-12-22T08:35:05Z,42.805,6.029,13.3023,4.60084,2470.217,2021-12-22T10:36:34Z
2021-12-22T08:38:08Z,42.805,6.029,13.3024,4.60069,2470.264,2021-12-22T10:39:37Z
2021-12-22T08:41:11Z,42.805,6.029,13.3023,4.60053,2470.24,2021-12-22T10:42:40Z
2021-12-22T08:44:14Z,42.805,6.029,13.3024,4.60056,2470.25,2021-12-22T10:45:43Z
2021-12-22T08:47:17Z,42.805,6.029,13.3014,4.60073,2470.264,2021-12-22T10:48:46Z
2021-12-22T08:50:20Z,42.805,6.029,13.3034,4.60073,2470.264,2021-12-22T10:51:49Z
2021-12-22T08:53:23Z,42.805,6.029,13.3029,4.60082,2470.264,2021-12-22T10:54:52Z
2021-12-22T08:56:26Z,42.805,6.029,13.3024,4.60029,2470.264,2021-12-22T10:57:55Z
2021-12-22T08:59:30Z,42.805,6.029,13.3034,4.60063,2470.25,2021-12-22T11:00:59Z
2021-12-22T09:02:33Z,42.805,6.029,13.3012,4.60063,2470.273,2021-12-22T11:04:02Z
2021-12-22T09:05:36Z,42.805,6.029,13.3038,4.60101,2470.264,2021-12-22T11:07:05Z
2021-12-22T09:08:39Z,42.805,6.029,13.3021,4.60087,2470.273,2021-12-22T11:10:08Z
2021-12-22T09:11:42Z,42.805,6.029,13.3023,4.60103,2470.24,2021-12-22T11:13:11Z
2021-12-22T09:14:45Z,42.805,6.029,13.3019,4.60072,2470.25,2021-12-22T11:16:14Z
2021-12-22T09:17:48Z,42.805,6.029,13.3026,4.60080,2470.264,2021-12-22T11:19:17Z
2021-12-22T09:20:51Z,42.805,6.029,13.3026,4.60047,2470.264,2021-12-22T11:22:20Z
2021-12-22T09:23:55Z,42.805,6.029,13.3029,4.60039,2470.273,2021-12-22T11:25:24Z
2021-12-22T09:26:58Z,42.805,6.029,13.3024,4.60060,2470.25,2021-12-22T11:28:27Z
2021-12-22T09:30:01Z,42.805,6.029,13.3017,4.60037,2470.25,2021-12-22T11:31:30Z
2021-12-22T09:33:04Z,42.805,6.029,13.3010,4.60029,2470.287,2021-12-22T11:34:33Z
2021-12-22T09:36:07Z,42.805,6.029,13.3024,4.60059,2470.287,2021-12-22T11:37:36Z
2021-12-22T09:39:10Z,42.805,6.029,13.3043,4.60072,2470.273,2021-12-22T11:40:39Z
2021-12-22T09:42:13Z,42.805,6.029,13.3025,4.60046,2470.25,2021-12-22T11:43:42Z
2021-12-22T09:45:17Z,42.805,6.029,13.3033,4.60062,2470.287,2021-12-22T11:46:46Z
2021-12-22T09:48:20Z,42.805,6.029,13.3024,4.60044,2470.287,2021-12-22T11:49:49Z
2021-12-22T09:51:23Z,42.805,6.029,13.3032,4.60057,2470.287,2021-12-22T11:52:52Z
2021-12-22T09:54:26Z,42.805,6.029,13.3021,4.60044,2470.287,2021-12-22T11:55:55Z
2021-12-22T09:57:29Z,42.805,6.029,13.3015,4.60031,2470.25,2021-12-22T11:58:58Z
2021-12-22T10:00:32Z,42.805,6.029,13.3019,4.60032,2470.31,2021-12-22T12:02:01Z
2021-12-22T10:03:35Z,42.805,6.029,13.3021,4.60068,2470.264,2021-12-22T12:05:04Z
2021-12-22T10:06:38Z,42.805,6.029,13.3031,4.60032,2470.25,2021-12-22T12:08:07Z
2021-12-22T10:09:42Z,42.805,6.029,13.3012,4.60034,2470.264,2021-12-22T12:11:11Z
2021-12-22T10:12:45Z,42.805,6.029,13.3011,4.60039,2470.25,2021-12-22T12:14:14Z
2021-12-22T10:15:48Z,42.805,6.029,13.3016,4.60041,2470.227,2021-12-22T12:17:17Z
2021-12-22T10:18:51Z,42.805,6.029,13.3009,4.60038,2470.273,2021-12-22T12:20:20Z
2021-12-22T10:21:54Z,42.805,6.029,13.3011,4.60042,2470.264,2021-12-22T12:23:23Z
2021-12-22T10:24:57Z,42.805,6.029,13.3018,4.60050,2470.25,2021-12-22T12:26:26Z
2021-12-22T10:28:00Z,42.805,6.029,13.3015,4.60033,2470.273,2021-12-22T12:29:29Z
2021-12-22T10:31:03Z,42.805,6.029,13.3012,4.60030,2470.25,2021-12-22T12:32:32Z
2021-12-22T10:34:07Z,42.805,6.029,13.3009,4.60041,2470.273,2021-12-22T12:35:36Z
2021-12-22T10:37:10Z,42.805,6.029,13.3011,4.60047,2470.287,2021-12-22T12:38:39Z
2021-12-22T10:40:13Z,42.805,6.029,13.3016,4.60030,2470.287,2021-12-22T12:41:42Z
2021-12-22T10:43:16Z,42.805,6.029,13.3006,4.60039,2470.25,2021-12-22T12:44:45Z
2021-12-22T10:46:19Z,42.805,6.029,13.3021,4.60047,2470.264,2021-12-22T12:47:48Z
2021-12-22T10:49:22Z,42.805,6.029,13.3008,4.60047,2470.287,2021-12-22T12:50:51Z
2021-12-22T10:52:25Z,42.805,6.029,13.3002,4.60044,2470.25,2021-12-22T12:53:54Z
2021-12-22T10:55:28Z,42.805,6.029,13.3011,4.60046,2470.227,2021-12-22T12:56:57Z
2021-12-22T10:58:32Z,42.805,6.029,13.3019,4.60041,2470.264,2021-12-22T13:00:01Z
2021-12-22T11:01:35Z,42.805,6.029,13.3009,4.60042,2470.203,2021-12-22T13:03:04Z
2021-12-22T11:04:38Z,42.805,6.029,13.3014,4.60044,2470.227,2021-12-22T13:06:07Z
2021-12-22T11:07:41Z,42.805,6.029,13.3016,4.60039,2470.264,2021-12-22T13:09:10Z
2021-12-22T11:10:44Z,42.805,6.029,13.3016,4.60039,2470.25,2021-12-22T13:12:13Z
2021-12-22T11:13:47Z,42.805,6.029,13.3016,4.60031,2470.227,2021-12-22T13:15:16Z
2021-12-22T11:16:50Z,42.805,6.029,13.3004,4.60044,2470.203,2021-12-22T13:18:19Z
2021-12-22T11:19:53Z,42.805,6.029,13.3014,4.60041,2470.24,2021-12-22T13:21:22Z
2021-12-22T11:22:57Z,42.805,6.029,13.3017,4.60035,2470.25,2021-12-22T13:24:26Z
2021-12-22T11:26:00Z,42.805,6.029,13.3011,4.60053,2470.227,2021-12-22T13:27:29Z
2021-12-22T11:29:03Z,42.805,6.029,13.3014,4.60043,2470.24,2021-12-22T13:30:32Z
2021-12-22T11:32:06Z,42.805,6.029,13.3026,4.60040,2470.203,2021-12-22T13:33:35Z
2021-12-22T11:35:09Z,42.805,6.029,13.3014,4.60039,2470.24,2021-12-22T13:36:38Z
2021-12-22T11:38:12Z,42.805,6.029,13.3017,4.60046,2470.25,2021-12-22T13:39:41Z
2021-12-22T11:41:15Z,42.805,6.029,13.3014,4.60045,2470.203,2021-12-22T13:42:44Z
2021-12-22T11:44:18Z,42.805,6.029,13.3014,4.60031,2470.264,2021-12-22T13:45:48Z
2021-12-22T11:47:22Z,42.805,6.029,13.3006,4.60041,2470.217,2021-12-22T13:48:51Z
2021-12-22T11:50:25Z,42.805,6.029,13.3015,4.60038,2470.217,2021-12-22T13:51:54Z
2021-12-22T11:53:28Z,42.805,6.029,13.3011,4.60058,2470.25,2021-12-22T13:54:57Z
2021-12-22T11:56:31Z,42.805,6.029,13.3007,4.60049,2470.217,2021-12-22T13:58:00Z
2021-12-22T11:59:34Z,42.805,6.029,13.3010,4.60046,2470.24,2021-12-22T14:01:03Z
2021-12-22T12:02:37Z,42.805,6.029,13.3012,4.60033,2470.203,2021-12-22T14:04:06Z
2021-12-22T12:05:40Z,42.805,6.029,13.3012,4.60039,2470.18,2021-12-22T14:07:09Z
2021-12-22T12:08:43Z,42.805,6.029,13.3017,4.60044,2470.227,2021-12-22T14:10:12Z
2021-12-22T12:11:47Z,42.805,6.029,13.3008,4.60029,2470.203,2021-12-22T14:13:16Z
2021-12-22T12:14:50Z,42.805,6.029,13.3015,4.60030,2470.203,2021-12-22T14:16:19Z
2021-12-22T12:17:53Z,42.805,6.029,13.3007,4.60039,2470.18,2021-12-22T14:19:22Z
2021-12-22T12:20:56Z,42.805,6.029,13.3018,4.60033,2470.18,2021-12-22T14:22:25Z
2021-12-22T12:23:59Z,42.805,6.029,13.3024,4.60035,2470.156,2021-12-22T14:25:28Z
2021-12-22T12:27:02Z,42.805,6.029,13.3011,4.60043,2470.194,2021-12-22T14:28:31Z
2021-12-22T12:30:05Z,42.805,6.029,13.3009,4.60039,2470.18,2021-12-22T14:31:34Z
2021-12-22T12:33:09Z,42.805,6.029,13.3006,4.60043,2470.18,2021-12-22T14:34:38Z
2021-12-22T12:36:12Z,42.805,6.029,13.3013,4.60064,2470.194,2021-12-22T14:37:41Z
2021-12-22T12:39:15Z,42.805,6.029,13.3011,4.60044,2470.217,2021-12-22T14:40:44Z
2021-12-22T12:42:18Z,42.805,6.029,13.3015,4.60041,2470.203,2021-12-22T14:43:47Z
2021-12-22T12:45:21Z,42.805,6.029,13.3011,4.60051,2470.203,2021-12-22T14:46:50Z
2021-12-22T12:48:24Z,42.805,6.029,13.3020,4.60039,2470.217,2021-12-22T14:49:53Z
2021-12-22T12:51:27Z,42.805,6.029,13.3022,4.60034,2470.203,2021-12-22T14:52:56Z
2021-12-22T12:54:30Z,42.805,6.029,13.3017,4.60039,2470.18,2021-12-22T14:55:59Z
2021-12-22T12:57:34Z,42.805,6.029,13.3018,4.60032,2470.194,2021-12-22T14:59:03Z
2021-12-22T13:00:37Z,42.805,6.029,13.3018,4.60037,2470.203,2021-12-22T15:02:06Z
2021-12-22T13:03:40Z,42.805,6.029,13.3004,4.60036,2470.203,2021-12-22T15:05:09Z
2021-12-22T13:06:43Z,42.805,6.029,13.3008,4.60046,2470.227,2021-12-22T15:08:12Z
2021-12-22T13:09:46Z,42.805,6.029,13.3006,4.60044,2470.171,2021-12-22T15:11:15Z
2021-12-22T13:12:49Z,42.805,6.029,13.3011,4.60037,2470.18,2021-12-22T15:14:18Z
2021-12-22T13:15:52Z,42.805,6.029,13.3006,4.60052,2470.203,2021-12-22T15:17:21Z
2021-12-22T13:18:55Z,42.805,6.029,13.3007,4.60038,2470.194,2021-12-22T15:20:24Z
2021-12-22T13:21:59Z,42.805,6.029,13.3006,4.60033,2470.217,2021-12-22T15:23:28Z
2021-12-22T13:25:02Z,42.805,6.029,13.3012,4.60040,2470.156,2021-12-22T15:26:31Z
2021-12-22T13:28:05Z,42.805,6.029,13.3024,4.60062,2470.194,2021-12-22T15:29:34Z
2021-12-22T13:31:08Z,42.805,6.029,13.3015,4.60044,2470.18,2021-12-22T15:32:37Z
2021-12-22T13:34:11Z,42.805,6.029,13.3009,4.60040,2470.133,2021-12-22T15:35:40Z
2021-12-22T13:37:14Z,42.805,6.029,13.3014,4.60039,2470.194,2021-12-22T15:38:43Z
2021-12-22T13:40:17Z,42.805,6.029,13.3020,4.60037,2470.171,2021-12-22T15:41:46Z
2021-12-22T13:43:20Z,42.805,6.029,13.3014,4.60036,2470.171,2021-12-22T15:44:49Z
2021-12-22T13:46:24Z,42.805,6.029,13.3026,4.60031,2470.18,2021-12-22T15:47:53Z
2021-12-22T13:49:27Z,42.805,6.029,13.3019,4.60030,2470.147,2021-12-22T15:50:56Z
2021-12-22T13:52:30Z,42.805,6.029,13.3015,4.60028,2470.18,2021-12-22T15:53:59Z
2021-12-22T13:55:33Z,42.805,6.029,13.3011,4.60032,2470.171,2021-12-22T15:57:02Z
2021-12-22T13:58:36Z,42.805,6.029,13.3008,4.60033,2470.133,2021-12-22T16:00:05Z
2021-12-22T14:01:39Z,42.805,6.029,13.3019,4.60038,2470.171,2021-12-22T16:03:08Z
2021-12-22T14:04:42Z,42.805,6.029,13.3027,4.60057,2470.171,2021-12-22T16:06:11Z
2021-12-22T14:07:45Z,42.805,6.029,13.3017,4.60051,2470.171,2021-12-22T16:09:14Z
2021-12-22T14:10:49Z,42.805,6.029,13.3035,4.60057,2470.156,2021-12-22T16:12:18Z
2021-12-22T14:13:52Z,42.805,6.029,13.3018,4.60031,2470.133,2021-12-22T16:15:21Z
2021-12-22T14:16:55Z,42.805,6.029,13.3022,4.60042,2470.156,2021-12-22T16:18:24Z
2021-12-22T14:19:58Z,42.805,6.029,13.3023,4.60037,2470.156,2021-12-22T16:21:27Z
2021-12-22T14:23:01Z,42.805,6.029,13.3004,4.60039,2470.133,2021-12-22T16:24:30Z
2021-12-22T14:26:04Z,42.805,6.029,13.3019,4.60046,2470.156,2021-12-22T16:27:33Z
2021-12-22T14:29:07Z,42.805,6.029,13.3016,4.60067,2470.133,2021-12-22T16:30:36Z
2021-12-22T14:32:10Z,42.805,6.029,13.3009,4.60074,2470.147,2021-12-22T16:33:40Z
2021-12-22T14:35:14Z,42.805,6.029,13.3036,4.60050,2470.133,2021-12-22T16:36:43Z
2021-12-22T14:38:17Z,42.805,6.029,13.3029,4.60034,2470.147,2021-12-22T16:39:46Z
2021-12-22T14:41:20Z,42.805,6.029,13.3034,4.60042,2470.133,2021-12-22T16:42:49Z
2021-12-22T14:44:23Z,42.805,6.029,13.3015,4.60043,2470.133,2021-12-22T16:45:52Z
2021-12-22T14:47:26Z,42.805,6.029,13.3014,4.60057,2470.171,2021-12-22T16:48:55Z
2021-12-22T14:50:29Z,42.805,6.029,13.3010,4.60064,2470.156,2021-12-22T16:51:58Z
2021-12-22T14:53:32Z,42.805,6.029,13.3014,4.60048,2470.156,2021-12-22T16:55:01Z
2021-12-22T14:56:35Z,42.805,6.029,13.3004,4.60057,2470.147,2021-12-22T16:58:05Z
2021-12-22T14:59:39Z,42.805,6.029,13.3015,4.60053,2470.156,2021-12-22T17:01:08Z
2021-12-22T15:02:42Z,42.805,6.029,13.3019,4.60037,2470.133,2021-12-22T17:04:11Z